Location: Archia
(45.8500°N, 22.9000°E)
Time: 10:56:39
(UTC+00:00)

Daily predictions for brighter satellites

Satellite Brightness Start Highest point End
(mag) Time Altitude Azimuth Time Altitude Azimuth Time Altitude Azimuth
Cosmos 1741 Rocket 4.3 18:48:22 10° NNW 18:53:40 60° ENE 18:58:54 10° SE
Cosmos 1536 Rocket 3.9 18:49:48 10° SSE 18:53:55 45° E 18:58:06 10° NNE
Cosmos 1703 3.9 18:53:31 10° SSE 18:57:01 34° E 19:00:32 10° NNE
CARTOSAT-1 4.1 18:53:06 10° SE 18:57:11 43° ENE 19:01:17 10° N
Ariane Rocket 3.1 18:53:07 10° SSE 18:58:09 66° ENE 19:03:13 10° N
USA 245 4.1 18:55:26 10° SE 18:58:48 29° ENE 19:01:37 10° N
Cosmos 1975 Rocket 4.4 18:55:45 10° SSW 18:59:58 44° WNW 19:04:13 10° N
ATLAS 2AS CENTAUR R/B 3.5 18:54:40 10° NW 19:01:21 47° WSW 19:07:36 10° S
IRS-1A Rocket 4.5 18:55:43 10° SSE 19:01:38 89° E 19:07:32 10° NNW
PSLV R/B 4.0 19:01:53 10° NNE 19:06:05 90° SSE 19:10:15 10° SSW
SPOT 3 Rocket 3.9 19:04:18 10° SE 19:09:21 54° ENE 19:14:27 10° N
Terra 3.2 19:05:41 10° ESE 19:09:30 25° ENE 19:13:19 10° N
ARIANE 5 R/B 4.5 19:07:33 10° ESE 19:10:30 18° ENE 19:13:25 10° NNE
SPOT 5 3.6 19:07:55 10° SE 19:11:48 32° ENE 19:15:40 10° N
SL-24 R/B 4.4 19:08:26 10° SSE 19:12:53 83° ENE 19:18:03 10° NNW
CZ-4B R/B 0.9 19:11:12 10° NNE 19:14:05 84° E 19:16:59 10° SSW
Cosmos 1544 Rocket 4.3 19:11:53 10° NNW 19:16:08 54° W 19:20:21 10° S
RESURS DK-1 2.6 19:12:39 10° NNW 19:16:48 71° WSW 19:20:54 10° SSE
Cosmos 1850 Rocket 4.1 19:14:09 10° NNW 19:19:22 82° WSW 19:24:32 10° SSE
Cosmos 2074 Rocket 4.0 19:13:28 10° N 19:19:46 74° E 19:25:59 10° SSE
Cosmos 1271 Rocket 4.0 19:16:20 10° NNW 19:20:05 41° W 19:23:45 10° SSW
USA 276 3.5 19:17:41 10° WNW 19:20:32 35° N 19:23:21 10° ENE
Cosmos 1455 3.3 19:17:01 10° NNW 19:20:40 44° W 19:24:19 10° SSW
IRAS Rocket 4.3 19:15:24 10° NNE 19:20:59 66° ESE 19:26:28 10° S
Cosmos 2082 Rocket 3.0 19:16:09 10° SSE 19:21:08 32° ESE 19:26:07 10° NE
Cosmos 1331 Rocket 4.0 19:16:27 10° S 19:21:41 65° ESE 19:26:56 10° NNE
Cosmos 2360 4.3 19:18:52 10° NNW 19:24:38 77° ENE 19:29:57 12° SSE
Spot 2 Rocket 3.8 19:23:52 11° SE 19:28:32 53° ENE 19:33:30 10° N
Nadezhda 1 Rocket 4.1 19:23:17 10° SSE 19:29:09 54° E 19:35:03 10° NNE
Helios 1A Rocket 3.4 19:28:48 13° SE 19:32:08 45° ENE 19:36:04 10° N
Cosmos 1328 4.4 19:29:38 12° SSE 19:33:03 39° E 19:36:47 10° NNE
GEOS 3 Rocket 4.0 19:28:10 11° SSE 19:33:03 56° SW 19:38:06 10° NW
Cosmos 2084 Rocket 3.3 19:30:17 10° NW 19:34:12 76° NE 19:37:25 16° SE
Lacrosse 5 4.1 19:31:42 10° W 19:34:42 16° WSW 19:37:41 10° SSW
Cosmos 1900 4.5 19:30:24 10° NW 19:35:35 80° SW 19:39:54 14° SSE
SPOT 1/Viking Rocket 4.4 19:32:58 10° S 19:37:54 47° W 19:42:54 10° NNW
ERS-1 Rocket 3.1 19:42:07 15° SSE 19:46:17 66° ENE 19:51:17 10° N
ATLAS 5 CENTAUR R/B 4.4 19:38:16 10° NW 19:47:01 27° W 19:50:39 10° SSW
Meteor 1-21 Rocket 4.2 19:42:29 10° S 19:48:05 83° E 19:53:50 10° NNE
Cosmos 1110 Rocket 4.4 19:45:33 10° SSW 19:50:47 68° WNW 19:56:07 10° NNE
Cosmos 1892 3.8 19:51:38 20° SE 19:53:15 27° E 19:56:27 10° NNE
X-37B 1.5 19:51:00 10° W 19:53:27 28° SSW 19:54:15 23° S
Cosmos 1302 Rocket 4.0 19:48:38 10° S 19:53:44 60° ESE 19:58:51 10° NNE
Cosmos 2154 Rocket 4.0 19:47:48 10° N 19:54:03 87° W 19:59:44 13° S
Cosmos 192 4.2 19:53:22 10° SSW 19:58:14 76° ESE 20:03:09 10° NNE
Cosmos 2228 3.5 19:54:39 10° NNW 19:58:49 57° W 20:02:34 12° S
Cosmos 968 Rocket 3.5 19:57:41 10° NNW 20:02:55 76° ENE 20:06:30 21° SSE
Cosmos 1697 Rocket 3.2 19:58:11 10° NW 20:03:38 53° WSW 20:08:06 15° S
Cosmos 1892 Rocket 3.6 20:00:54 18° S 20:04:03 60° E 20:08:21 10° NNE
Cosmos 1980 Rocket 2.2 19:58:40 10° NNW 20:04:23 82° ENE 20:08:21 21° SSE
SL-16 R/B 3.6 20:01:55 10° N 20:06:46 28° NE 20:11:07 12° ESE
USA 267 4.1 20:03:35 10° ENE 20:08:55 26° SE 20:12:17 18° SSE
SL-8 Rocket 4.4 20:03:20 10° N 20:09:24 50° ENE 20:13:23 21° SE
ATLAS 5 CENTAUR R/B 1.6 20:09:31 22° S 20:11:23 39° ESE 20:15:10 10° NE
Cosmos 2369 3.8 20:06:54 10° NNW 20:12:40 79° WSW 20:16:35 21° SSE
Cosmos 2058 Rocket 3.3 20:09:15 10° N 20:13:39 58° ENE 20:16:04 25° SSE
Cosmos 1408 2.4 20:14:47 29° SSE 20:16:18 60° E 20:19:43 10° NNE
Resurs 01 Rocket 4.2 20:13:41 10° SW 20:16:18 15° W 20:18:57 10° NW
CZ-2C R/B 3.6 20:12:18 10° NNE 20:16:52 88° ESE 20:20:34 15° SSW
Cosmos 2344 4.4 20:09:33 10° NW 20:18:38 80° SW 20:28:17 20° SSE
In-Cosmos 22 Rocket 4.5 20:17:20 22° SSE 20:20:34 48° E 20:25:46 10° NNE
COSMOS 2406 3.6 20:15:21 10° SW 20:21:05 67° WNW 20:26:50 10° NNE
SJ 16-02 3.3 20:20:54 10° N 20:24:08 19° ENE 20:26:38 13° E
Cosmos 1833 Rocket 4.2 20:21:47 10° WSW 20:26:58 37° NW 20:32:11 10° NNE
Cosmos 2366 rocket 4.2 20:23:30 10° N 20:29:47 60° ENE 20:33:35 25° SSE
Cosmos 1867 3.7 20:26:13 10° NW 20:31:39 68° WSW 20:34:38 27° SSE
Cosmos 1825 2.6 20:33:23 35° SE 20:34:21 44° E 20:37:57 10° NNE
Cosmos 2218 Rocket 4.1 20:29:46 10° N 20:36:10 67° E 20:39:56 26° SSE
Cosmos 2322 Rocket 3.3 20:35:50 10° NNW 20:41:02 35° NE 20:44:41 18° ESE
Cosmos 1869 3.5 20:37:54 10° N 20:41:45 55° E 20:42:59 37° SE
Meteor 1-27 4.2 20:36:41 10° N 20:42:15 70° ENE 20:45:08 29° SSE
USA 234 4.3 20:37:48 10° E 20:43:54 43° NNE 20:50:02 10° NW
Cosmos 1959 Rocket 4.4 20:40:20 10° N 20:46:28 76° E 20:49:51 28° SSE
ARIANE 5 R/B 3.1 20:44:14 26° SSW 20:46:32 55° W 20:50:53 10° NNW
Terra 2.7 20:44:04 20° SSW 20:47:00 43° W 20:51:34 10° NNW
GP-B 3.0 20:42:34 10° N 20:47:02 86° E 20:49:01 33° S
SPOT 5 4.3 20:46:56 13° SW 20:49:56 25° W 20:53:32 10° NW
SAR-Lupe-4 3.4 20:50:51 10° NNE 20:54:26 76° ESE 20:55:18 49° S
Cosmos 2278 3.8 20:48:54 10° NNW 20:54:36 70° WSW 20:57:25 31° S
Cosmos 2341 Rocket 4.3 20:49:06 10° NNW 20:55:20 65° W 20:59:17 23° SSW
Cosmos 864 Rocket 4.4 20:50:17 10° N 20:56:30 90° ENE 20:59:55 29° S
USA 276 2.0 20:53:30 10° WNW 20:56:32 75° NNE 20:56:54 63° E
FALCON 9 DEB 2.8 20:54:34 10° WNW 20:57:49 69° SW 20:58:00 67° S
Cosmos 1992 Rocket 4.0 20:57:38 20° SSW 21:01:21 80° WNW 21:06:38 10° NNE
Cosmos 2333 Rocket 4.0 20:56:52 10° N 21:01:27 24° NE 21:06:02 10° E
Cosmos 2082 Rocket 3.3 20:59:37 10° SW 21:05:03 44° NW 21:10:30 10° NNE
Cosmos 1633 2.6 21:05:14 50° ESE 21:05:24 51° E 21:08:48 10° NNE
Okean 1-7 Rocket 3.6 21:03:32 33° SSW 21:05:31 79° W 21:10:04 10° N
Cosmos 1758 Rocket 4.0 21:05:17 39° SE 21:06:14 45° E 21:10:27 10° NNE
Cosmos 1486 Rocket 4.1 21:02:23 10° NNW 21:07:35 69° WSW 21:09:45 35° S
ASTEX 1 3.7 21:03:57 10° N 21:08:54 63° W 21:11:40 26° SSW
ADEOS Rocket 4.1 21:06:17 23° SE 21:10:50 49° ENE 21:18:14 10° N
SAR-Lupe-1 4.5 21:07:39 10° N 21:11:11 58° WNW 21:12:24 36° SW
Cosmos 2360 Rocket 3.1 21:10:15 10° NNW 21:15:38 41° NE 21:18:47 22° ESE
Gbstr 26 Del rocket 3.3 21:16:35 44° SE 21:16:35 44° SE 21:20:54 10° ENE
Cosmos-2242 3.1 21:13:10 10° N 21:17:22 60° ENE 21:18:22 46° SE
Cosmos 1812 Rocket 3.5 21:13:20 10° N 21:17:50 77° E 21:19:01 47° SSE
Cosmos 1606 3.3 21:15:12 10° N 21:18:54 42° ENE 21:19:29 39° ESE
Cosmos 2181 Rocket 4.3 21:17:08 21° SSW 21:21:18 61° WNW 21:27:31 10° N
Cosmos 807 4.2 21:19:27 10° NNW 21:22:13 67° WNW 21:22:13 67° WNW
Cosmos 1340 Rocket 4.2 21:23:11 25° E 21:23:14 25° E 21:26:30 10° NE
Cosmos 1821 Rocket 4.0 21:17:47 10° N 21:24:02 75° E 21:26:44 36° SSE
Cosmos 1602 Rocket 3.5 21:28:28 44° SSW 21:29:45 76° W 21:34:06 10° N
Cosmos 44 3.7 21:35:47 37° ESE 21:35:47 37° ESE 21:39:52 10° NE
CENTAUR R/B 4.2 21:35:23 14° ESE 21:35:48 14° ESE 21:38:54 10° ENE
Cosmos 1354 Rocket 4.0 21:32:10 10° NNW 21:37:29 78° WSW 21:39:12 44° S
Cosmos 2237 4.2 21:32:32 10° NNW 21:38:18 87° ENE 21:40:30 40° SSE
Spot 4 3.8 21:42:42 47° S 21:44:02 76° WSW 21:48:52 10° NNW
ALOS 2 2.6 21:44:13 51° SE 21:45:11 72° ENE 21:49:35 10° N
Nadezhda 3 Rocket 3.9 21:43:20 37° S 21:45:57 86° E 21:52:09 10° N
Cosmos 1503 Rocket 4.3 21:40:50 10° NNW 21:45:59 54° WSW 21:47:32 39° SSW
Cosmos 1980 Rocket 4.2 21:44:20 10° WNW 21:47:37 16° W 21:50:07 12° SW
COSMOS 2428 4.4 21:43:14 10° N 21:48:00 26° NE 21:52:40 10° ESE
ERS-2 3.4 21:45:52 10° NE 21:48:35 27° E 21:48:35 27° E
SL-16 R/B 2.5 21:45:40 10° NW 21:51:12 55° WSW 21:52:57 39° SSW
Cosmos 1777 Rocket 3.9 21:45:59 10° NNW 21:51:18 89° WSW 21:52:54 46° SSE
Cosmos 2219 Rocket 3.4 21:46:12 10° NNW 21:51:25 36° NE 21:55:00 18° ESE
USA 267 3.2 21:45:55 10° NE 21:52:30 86° SE 21:59:03 10° SW
Cosmos 2058 2.8 21:53:50 65° SSE 21:54:24 80° E 21:58:35 10° N
H-2A R/B 3.4 21:51:32 10° NNE 21:55:46 83° ESE 21:56:24 63° S
ATLAS 5 CENTAUR R/B 3.5 21:52:47 10° W 21:56:02 25° NW 21:59:39 10° NNE
Cosmos 1953 Rocket 3.7 21:55:55 51° SE 21:56:32 57° E 22:00:53 10° NNE
Meteor 2-2 Rocket 4.4 21:53:01 10° N 21:59:04 81° ENE 22:01:20 41° SSE
SJ 16-02 1.7 21:58:41 10° NNW 22:02:59 50° WSW 22:03:35 46° SW
Cosmos 1825 Rocket 3.5 22:04:05 56° SSW 22:04:53 75° W 22:09:15 10° N
SL-4 R/B 1.9 22:04:44 52° W 22:05:24 68° NNW 22:09:03 10° ENE
Cosmos 2221 2.7 22:10:21 10° N 22:14:41 60° E 22:15:26 51° ESE
PSLV R/B 4.1 22:12:29 10° NNE 22:17:06 49° E 22:17:51 45° SE
Cosmos 2322 Rocket 2.8 22:19:51 10° NW 22:25:08 41° WSW 22:26:28 36° SW
USA 234 3.2 22:22:04 22° SE 22:26:34 87° SW 22:33:11 10° NW
Cosmos 1842 Rocket 3.8 22:23:01 10° N 22:27:29 62° E 22:28:19 51° SE
CRYOSAT 2 4.3 22:29:27 53° SSE 22:30:36 86° E 22:35:32 10° N
Cosmos 1934 Rocket 4.0 22:26:30 10° NNW 22:32:34 67° W 22:34:46 40° SSW
Celestis-02/Orion 38 4.4 22:37:03 45° SSE 22:38:41 89° ENE 22:43:48 10° NNW
BREEZE-M DEB (TANK) 4.5 22:35:24 10° WNW 22:39:42 82° SSW 23:01:14 10° ESE
Cosmos 1763 Rocket 3.6 22:41:35 49° SSE 22:42:50 65° ESE 22:48:05 10° NNE
Resurs 1-4 Rocket 4.2 22:42:49 10° NE 22:45:42 15° E 22:48:00 11° ESE
Cosmos 2333 Rocket 2.2 22:40:34 10° NNW 22:46:20 71° WSW 22:48:05 45° S
Cosmos 1933 3.2 22:44:44 10° N 22:48:44 74° E 22:49:07 67° SE
USA 290 2.9 22:45:51 10° NNW 22:48:53 50° NE 22:48:53 50° NE
COSMOS 2487 2.9 22:52:54 50° NNW 22:52:54 50° NNW 22:55:24 10° NNE
Cosmos 1812 3.2 22:50:19 10° N 22:54:03 50° ENE 22:54:29 47° ESE
Cosmos 841 Rocket 4.4 22:53:16 30° SE 22:54:26 34° ESE 22:59:04 10° NE
Cosmos 990 Rocket 3.8 22:50:51 10° NNW 22:56:01 84° WSW 22:57:26 49° SSE
Cosmos 972 4.4 22:51:16 10° NNW 22:56:19 81° WSW 22:57:54 47° S
ADEOS Rocket 4.2 22:53:13 28° SW 22:56:22 41° W 23:03:35 10° NNW
Cosmos 2360 Rocket 3.0 22:54:28 10° NW 22:59:31 34° WSW 23:00:31 32° SW
Cosmos 1340 Rocket 4.3 22:58:42 24° W 22:59:32 26° WNW 23:02:56 10° NNW
ISS -3.4 23:00:48 63° NNW 23:00:50 63° NNW 23:04:11 10° ENE
CZ-2D R/B 4.0 22:57:29 10° NE 23:01:06 19° E 23:03:21 15° ESE
Cosmos 1727 Rocket 4.1 22:58:59 39° S 23:01:29 73° E 23:07:46 10° NNE
SL-23 DEB 3.7 23:02:39 56° ENE 23:02:39 56° ENE 23:05:14 10° ENE
Cosmos 2227 Rocket 4.1 23:00:37 14° ESE 23:02:37 16° E 23:05:59 10° ENE
Gbstr 26 Del rocket 3.9 22:59:00 11° W 23:03:11 55° NNW 23:08:30 10° ENE
Meteor 2-3 Rocket 3.7 23:04:49 44° SSW 23:06:42 79° W 23:12:18 10° N
Cosmos 1076 Rocket 3.6 23:09:44 55° SW 23:10:29 67° W 23:14:51 10° N
Cosmos 540 Rocket 3.5 23:10:08 48° S 23:11:30 71° ESE 23:16:39 10° NNE
ADEOS II 4.4 23:09:24 10° ENE 23:11:46 13° E 23:14:07 10° ESE
Cosmos 468 Rocket 4.0 23:10:37 45° SSW 23:12:19 82° WNW 23:17:40 10° NNE
SL-27 R/B 3.5 23:13:18 32° WNW 23:13:24 32° WNW 23:16:23 10° N
BREEZE-M DEB (TANK) 3.2 23:12:24 36° W 23:13:33 71° NNW 23:20:47 10° ENE
SL-16 R/B 4.1 23:08:18 10° ESE 23:13:38 31° ENE 23:18:59 10° N
NOSS 3-2 (A) 3.2 23:13:40 43° SSW 23:15:35 76° SE 23:21:54 10° NE
Cosmos 2100 Rocket 4.1 23:14:57 10° N 23:21:22 74° E 23:24:35 31° SSE
Cosmos 1862 3.6 23:21:22 48° SE 23:21:56 53° E 23:25:47 10° NNE
Cosmos 1782 2.9 23:18:11 10° NNW 23:22:05 56° W 23:22:20 55° WSW
ERS-2 3.9 23:19:27 10° NNW 23:22:12 21° WNW 23:22:56 20° W
Cosmos 2173 Rocket 4.1 23:17:22 10° N 23:23:46 73° E 23:27:07 30° SSE
CENTAUR R/B 2.4 23:22:31 38° SSW 23:24:58 81° SE 23:32:01 10° NE
Timation 1 Rocket 4.5 23:23:19 38° S 23:25:31 63° ESE 23:31:28 10° NNE
Lacrosse 4 Rocket 4.3 23:23:55 10° N 23:26:13 14° NE 23:28:30 10° ENE
Cosmos 2237 Rocket 3.0 23:20:52 10° NNW 23:26:22 50° ENE 23:31:24 12° SE
Cosmos 2297 Rocket 2.9 23:29:19 30° SSE 23:31:20 41° ESE 23:36:36 10° NE
Cosmos 2151 3.4 23:31:03 43° WSW 23:31:54 51° WNW 23:36:07 10° N
COSMOS 2428 2.8 23:27:02 10° NNW 23:32:40 61° WSW 23:34:37 39° S
USA 267 4.3 23:29:04 10° NE 23:35:11 43° NNW 23:41:16 10° W
Cosmos 2219 Rocket 2.8 23:30:09 10° NW 23:35:24 40° WSW 23:36:40 35° SW
Cosmos 2016 Rocket 4.3 23:33:13 10° N 23:39:16 62° ENE 23:43:07 23° SSE
Cosmos 2322 4.4 23:39:22 10° NW 23:44:31 37° WSW 23:45:45 33° SW
SL-4 R/B 3.5 23:41:57 10° WNW 23:45:15 33° N 23:48:46 10° ENE
Cosmos 1898 Rocket 3.8 23:40:48 10° NNW 23:45:46 47° WSW 23:47:02 39° SW
Cosmos 1151 Rocket 3.2 23:42:22 10° N 23:46:46 70° E 23:48:25 37° SSE
Cosmos 1937 Rocket 3.6 23:45:52 10° NNW 23:51:01 59° WSW 23:52:46 38° SSW
COSMOS 2455 2.9 23:47:49 10° NNW 23:53:53 82° ENE 23:59:28 12° SE
